Location: Bella Coola
(52.3721°N, 126.7539°W)
Time: 18:31:00
(UTC-07:00)

ISS - Pass Details

Date: 26 May 2019
Orbit: 408 x 418 km, 51.6° (Epoch: 16 June)

Event Time Altitude Azimuth Distance (km) Brightness Sun altitude
Rises 01:16:25 0° 281° (W) 2,364 0.2 -16.5°
Reaches altitude 10° 01:18:49 10° 265° (W) 1,500 -1.0 -16.5°
Enters shadow 01:20:05 17° 247° (WSW) 1,152 -1.8 -16.5°
